Location: East Fork Observatory
(32.9757°N, 94.4485°W)
Time: 21:43:50
(UTC-06:00)

Hubble Space Telescope - Pass Details

Date: 28 October 2019
Orbit: 536 x 540 km, 28.5° (Epoch: 17 November)

Event Time Altitude Azimuth Distance (km) Brightness Sun altitude
Exits shadow 06:13:06 10° 210° (SSW) 1,748 3.1 -17.2°
Maximum altitude 06:16:06 21° 161° (SSE) 1,234 2.9 -16.5°
Drops below altitude 10° 06:19:13 10° 112° (ESE) 1,778 4.6 -15.9°
Sets 06:21:53 0° 96° (E) 2,669 6.3 -15.3°
